When you browse on this site, cookies collect data to enhance your experience and personalize the content and advertising you see.
Visit our Privacy Policy to learn more. By continuing to use the site, you agree to this use of cookies and data.
  • In Hungary
  • List of Countries
  • For 7 days
  • Water Temperature
  • Satellite Maps
  • Weather Map
  • News
  • Weather Widgets
  • user-avatar
    Login

    Hourly Weather Probiinivka

    Today, 17 December, Monday

    Time Temperature Precipitation Wind Pressure Humidity
    00:00 -3°C° 0.1 mm 1 mps 666 mmHg 94%
    01:00 -3°C° 0.1 mm 1 mps 666 mmHg 94%
    02:00 -3°C° 0.1 mm 1 mps 666 mmHg 94%
    03:00 -3°C° 0.1 mm 1 mps 666 mmHg 94%
    04:00 -3°C° 0.1 mm 1 mps 666 mmHg 94%
    05:00 -3°C° 0.1 mm 1 mps 665 mmHg 94%
    06:00 -3°C° 0.1 mm 1 mps 665 mmHg 94%
    07:00 -3°C° 0.1 mm 1 mps 665 mmHg 95%
    08:00 -3°C° 0.1 mm 1 mps 665 mmHg 95%
    09:00 -2°C° 0.1 mm 1 mps 666 mmHg 94%
    10:00 -1°C° 0.1 mm 1 mps 666 mmHg 94%
    11:00 -1°C° 0.1 mm 1 mps 666 mmHg 93%
    12:00 -1°C° 0.2 mm 1 mps 666 mmHg 94%
    13:00 0°C° 0.2 mm 1 mps 666 mmHg 94%
    14:00 0°C° 0.2 mm 1 mps 666 mmHg 95%
    15:00 -1°C° 0.3 mm 1 mps 666 mmHg 96%
    16:00 -1°C° 0.3 mm 1 mps 666 mmHg 96%
    17:00 -2°C° 0.3 mm 1 mps 666 mmHg 97%
    18:00 -2°C° 0.5 mm 1 mps 666 mmHg 97%
    19:00 -2°C° 0.5 mm 1 mps 666 mmHg 97%
    20:00 -3°C° 0.5 mm 1 mps 667 mmHg 97%
    21:00 -3°C° 0.6 mm 1 mps 667 mmHg 97%
    22:00 -3°C° 0.6 mm 1 mps 667 mmHg 97%
    23:00 -3°C° 0.6 mm 1 mps 667 mmHg 96%

    Tomorrow, 18 December, Tuesday

    Time Temperature Precipitation Wind Pressure Humidity
    00:00 -4°C° 0.4 mm 1 mps 667 mmHg 96%
    01:00 -4°C° 0.4 mm 1 mps 668 mmHg 96%
    02:00 -4°C° 0.4 mm 1 mps 668 mmHg 96%
    03:00 -4°C° 0.4 mm 1 mps 668 mmHg 96%
    04:00 -4°C° 0.4 mm 1 mps 668 mmHg 96%
    05:00 -4°C° 0.4 mm 1 mps 668 mmHg 96%
    06:00 -6°C° 0.3 mm 1 mps 668 mmHg 96%
    07:00 -6°C° 0.3 mm 1 mps 668 mmHg 96%
    08:00 -6°C° 0.3 mm 1 mps 669 mmHg 95%
    09:00 -4°C° 0.2 mm 1 mps 669 mmHg 94%
    10:00 -4°C° 0.2 mm 1 mps 669 mmHg 93%
    11:00 -4°C° 0.2 mm 1 mps 669 mmHg 92%
    12:00 -3°C° 0.1 mm 1 mps 669 mmHg 92%
    13:00 -3°C° 0.1 mm 1 mps 669 mmHg 91%
    14:00 -3°C° 0.1 mm 1 mps 669 mmHg 91%
    15:00 -4°C° 0.1 mm 1 mps 669 mmHg 93%
    16:00 -4°C° 0.1 mm 1 mps 669 mmHg 94%
    17:00 -6°C° 0.1 mm 1 mps 669 mmHg 96%
    18:00 -7°C° 0 mm 1 mps 669 mmHg 96%
    19:00 -7°C° 0 mm 1 mps 669 mmHg 96%
    20:00 -7°C° 0 mm 1 mps 669 mmHg 96%
    21:00 -8°C° 0 mm 1 mps 669 mmHg 96%
    22:00 -8°C° 0 mm 1 mps 669 mmHg 95%
    23:00 -8°C° 0 mm 1 mps 669 mmHg 95%

    Day after tomorrow, 19 December, Wednesday

    Time Temperature Precipitation Wind Pressure Humidity
    00:00 -8°C° 0 mm 0 mps 669 mmHg 95%
    01:00 -8°C° 0 mm 0 mps 669 mmHg 95%
    02:00 -9°C° 0 mm 0 mps 669 mmHg 94%
    03:00 -9°C° 0.1 mm 0 mps 668 mmHg 94%
    04:00 -9°C° 0.1 mm 0 mps 668 mmHg 94%
    05:00 -9°C° 0.1 mm 0 mps 668 mmHg 93%
    06:00 -9°C° 0 mm 0 mps 668 mmHg 93%
    07:00 -9°C° 0 mm 0 mps 668 mmHg 93%
    08:00 -9°C° 0 mm 0 mps 668 mmHg 93%
    09:00 -8°C° 0 mm 0 mps 669 mmHg 92%
    10:00 -7°C° 0 mm 0 mps 669 mmHg 90%
    11:00 -6°C° 0 mm 1 mps 670 mmHg 88%
    12:00 -4°C° 0 mm 1 mps 669 mmHg 88%
    13:00 -4°C° 0 mm 1 mps 669 mmHg 87%
    14:00 -3°C° 0 mm 1 mps 669 mmHg 87%
    15:00 -4°C° 0 mm 1 mps 669 mmHg 90%
    16:00 -7°C° 0 mm 1 mps 669 mmHg 93%
    17:00 -8°C° 0 mm 1 mps 668 mmHg 95%
    18:00 -8°C° 0 mm 1 mps 668 mmHg 95%
    19:00 -9°C° 0 mm 1 mps 669 mmHg 95%
    20:00 -9°C° 0 mm 1 mps 669 mmHg 95%
    21:00 -9°C° 0 mm 1 mps 668 mmHg 94%
    22:00 -10°C° 0 mm 1 mps 668 mmHg 93%
    23:00 -10°C° 0 mm 1 mps 668 mmHg 93%

    20 December, Thursday

    Time Temperature Precipitation Wind Pressure Humidity
    00:00 -10°C° 0 mm 1 mps 668 mmHg 92%
    01:00 -10°C° 0 mm 1 mps 668 mmHg 91%
    02:00 -10°C° 0 mm 1 mps 668 mmHg 91%
    03:00 -10°C° 0 mm 1 mps 668 mmHg 90%
    04:00 -10°C° 0 mm 1 mps 668 mmHg 90%
    05:00 -10°C° 0 mm 1 mps 668 mmHg 89%
    06:00 -10°C° 0 mm 1 mps 668 mmHg 89%
    07:00 -10°C° 0 mm 1 mps 668 mmHg 88%
    08:00 -10°C° 0 mm 1 mps 668 mmHg 88%
    09:00 -8°C° 0 mm 1 mps 668 mmHg 87%
    10:00 -6°C° 0 mm 1 mps 669 mmHg 85%
    11:00 -3°C° 0 mm 1 mps 669 mmHg 84%
    12:00 -3°C° 0 mm 1 mps 669 mmHg 86%
    13:00 -2°C° 0 mm 1 mps 668 mmHg 87%
    14:00 -2°C° 0 mm 1 mps 668 mmHg 89%
    15:00 -3°C° 0 mm 1 mps 668 mmHg 90%
    16:00 -6°C° 0 mm 1 mps 667 mmHg 91%
    17:00 -7°C° 0 mm 1 mps 667 mmHg 92%
    18:00 -7°C° 0 mm 1 mps 667 mmHg 90%
    19:00 -8°C° 0 mm 1 mps 667 mmHg 89%
    20:00 -8°C° 0 mm 1 mps 666 mmHg 88%
    21:00 -8°C° 0 mm 1 mps 666 mmHg 87%
    22:00 -8°C° 0 mm 1 mps 666 mmHg 86%
    23:00 -7°C° 0 mm 1 mps 666 mmHg 85%

    21 December, Friday

    Time Temperature Precipitation Wind Pressure Humidity
    00:00 -7°C° 0 mm 1 mps 666 mmHg 84%
    01:00 -7°C° 0 mm 1 mps 666 mmHg 84%
    02:00 -6°C° 0 mm 1 mps 666 mmHg 83%
    03:00 -6°C° 0 mm 1 mps 665 mmHg 83%
    04:00 -6°C° 0 mm 1 mps 665 mmHg 83%
    05:00 -6°C° 0 mm 1 mps 665 mmHg 83%
    06:00 -6°C° 0 mm 1 mps 665 mmHg 83%
    07:00 -6°C° 0 mm 1 mps 665 mmHg 84%
    08:00 -6°C° 0 mm 1 mps 665 mmHg 84%
    09:00 -6°C° 0 mm 1 mps 665 mmHg 84%
    10:00 -4°C° 0 mm 1 mps 665 mmHg 85%
    11:00 -3°C° 0 mm 1 mps 666 mmHg 85%
    12:00 -3°C° 0.1 mm 1 mps 665 mmHg 86%
    13:00 -3°C° 0.1 mm 1 mps 665 mmHg 87%
    14:00 -2°C° 0.1 mm 1 mps 665 mmHg 88%
    15:00 -3°C° 0.2 mm 1 mps 665 mmHg 91%
    16:00 -4°C° 0.2 mm 1 mps 665 mmHg 93%
    17:00 -6°C° 0.2 mm 0 mps 665 mmHg 96%
    18:00 -6°C° 0.2 mm 0 mps 665 mmHg 96%
    19:00 -6°C° 0.2 mm 1 mps 665 mmHg 96%
    20:00 -6°C° 0.2 mm 1 mps 665 mmHg 96%
    21:00 -6°C° 0.2 mm 1 mps 665 mmHg 95%
    22:00 -7°C° 0.2 mm 1 mps 665 mmHg 95%
    23:00 -7°C° 0.2 mm 1 mps 665 mmHg 95%

    22 December, Saturday

    Time Temperature Precipitation Wind Pressure Humidity
    00:00 -7°C° 0.1 mm 1 mps 665 mmHg 95%
    01:00 -7°C° 0.1 mm 1 mps 665 mmHg 95%
    02:00 -7°C° 0.1 mm 1 mps 665 mmHg 94%
    03:00 -8°C° 0.1 mm 1 mps 665 mmHg 94%
    04:00 -8°C° 0.1 mm 1 mps 665 mmHg 94%
    05:00 -8°C° 0.1 mm 1 mps 665 mmHg 93%
    06:00 -8°C° 0 mm 1 mps 665 mmHg 93%
    07:00 -8°C° 0 mm 1 mps 665 mmHg 92%
    08:00 -8°C° 0 mm 1 mps 665 mmHg 92%
    09:00 -7°C° 0 mm 1 mps 666 mmHg 91%
    10:00 -6°C° 0 mm 1 mps 666 mmHg 89%
    11:00 -4°C° 0 mm 1 mps 666 mmHg 88%
    12:00 -3°C° 0.1 mm 1 mps 666 mmHg 88%
    13:00 -3°C° 0.1 mm 1 mps 666 mmHg 89%
    14:00 -2°C° 0.1 mm 1 mps 666 mmHg 89%
    15:00 -3°C° 0.1 mm 1 mps 666 mmHg 90%
    16:00 -4°C° 0.1 mm 1 mps 666 mmHg 92%
    17:00 -4°C° 0.1 mm 1 mps 666 mmHg 94%
    18:00 -6°C° 0.2 mm 1 mps 666 mmHg 94%
    19:00 -6°C° 0.2 mm 1 mps 666 mmHg 94%
    20:00 -6°C° 0.2 mm 1 mps 666 mmHg 94%
    21:00 -6°C° 0.2 mm 1 mps 666 mmHg 94%
    22:00 -6°C° 0.2 mm 1 mps 666 mmHg 94%
    23:00 -6°C° 0.2 mm 0 mps 667 mmHg 94%
    Show more